Temp
57 58 58 58 57 57 57 57 57 57 58 58 58 58 59 59 59 75 74 80 80 73 70 87 89 91 92 86 89 90 74 71 76 80 84 80 71 92 94 89 91 93 84 82 82
57 56 57 57 57 57 56 56 56 56 57 58 58 58 58 58 64 71 77 71 71 71 84 84 84 89 84 85 86 81 72 74 84 89 88 84 71 86 85 83 80 76 79 80 79
56 56 57 57 56 56 56 56 56 56 57 57 57 58 58 60 66 80 69 70 70 72 83 85 87 85 81 85 84 83 74 82 85 89 91 90 88 89 83 78 80 73 74 77 78
56 56 56 56 56 55 55 55 55 56 56 57 57 58 58 64 63 81 71 72 71 81 82 82 83 78 76 76 85 78 84 85 86 89 87 87 90 85 86 84 87 82 80 80 80
55 55 55 55 55 55 55 55 55 55 56 56 57 58 63 67 73 81 73 73 83 84 82 81 79 79 74 80 82 80 83 87 89 87 85 88 83 83 82 87 87 84 82 82 83
55 54 54 54 54 54 54 54 54 55 55 56 58 58 63 62 89 91 88 87 87 87 84 84 81 84 80 79 79 84 85 85 87 85 85 83 80 80 79 84 84 83 82 84 85
54 54 54 54 54 54 54 54 54 54 55 57 59 64 66 69 90 90 88 85 88 88 82 87 87 82 82 76 84 83 77 82 83 83 82 85 73 72 79 81 81 81 82 84 85
54 54 53 53 53 53 53 53 54 55 56 59 58 67 64 87 90 87 88 85 88 89 86 87 87 80 78 82 79 76 76 68 80 82 83 80 68 74 79 77 75 77 81 81 83
54 53 53 53 52 53 53 53 54 57 59 59 61 65 65 78 79 86 87 82 86 86 86 88 83 75 76 69 67 71 64 67 73 82 80 76 70 79 77 75 73 77 78 78 79
54 53 53 53 52 53 53 53 60 58 61 70 72 64 72 73 83 84 88 85 81 81 78 76 74 68 69 67 56 62 64 68 69 78 78 73 72 72 74 74 73 76 76 76 77
53 53 53 52 53 53 55 66 65 60 64 66 68 68 76 82 84 80 85 81 80 76 66 72 64 60 66 70 70 71 69 68 74 80 75 73 73 72 74 74 74 75 75 75 74
53 52 52 52 52 54 62 63 60 61 51 67 70 72 78 82 69 77 86 72 70 64 70 66 60 69 73 73 71 69 66 67 75 80 74 73 72 74 73 74 76 76 75 75 75
52 52 52 52 53 58 64 61 69 66 53 64 73 72 74 77 69 71 79 74 69 64 66 62 67 74 71 68 66 67 65 67 67 75 77 72 68 71 73 75 77 78 79 78 75
52 52 52 52 54 64 61 67 67 64 49 62 65 70 73 73 65 78 81 75 69 64 67 66 73 70 68 65 67 60 72 71 69 67 56 70 53 66 68 68 72 74 76 76 74
51 51 51 51 55 59 61 65 65 57 35 64 66 78 75 67 71 73 81 76 64 66 67 62 66 66 64 65 69 63 70 67 68 64 63 63 58 65 69 64 67 72 74 75 73
51 51 52 60 62 61 64 63 58 43 34 59 67 64 64 67 68 73 71 77 75 66 68 66 74 71 69 71 71 72 66 65 64 62 51 61 60 59 66 67 69 73 73 74 73
51 51 52 58 53 62 61 57 43 33 62 57 57 62 62 61 65 67 64 62 58 52 53 62 64 71 72 64 68 67 59 47 44 46 47 63 60 63 73 76 74 71 73 73 72
51 50 57 63 61 61 57 51 31 51 51 57 56 56 53 60 63 64 62 58 64 61 56 53 50 64 71 65 60 61 59 47 37 41 48 63 54 64 76 80 79 77 76 75 71
51 60 59 59 60 60 51 36 39 46 49 47 52 52 55 61 62 61 60 59 64 65 53 51 53 69 72 72 68 60 54 65 52 54 49 55 64 72 77 76 78 77 76 72 70
49 55 56 59 60 55 48 36 46 50 50 50 43 53 48 53 53 56 56 55 52 58 59 55 47 63 67 72 71 65 67 52 54 40 38 50 54 58 68 72 76 77 74 71 71
53 51 55 59 59 53 37 42 45 52 51 45 44 44 46 46 49 49 52 48 52 53 58 56 52 52 61 60 59 60 57 58 58 54 43 42 51 68 69 72 73 77 74 71 71
51 39 57 59 43 42 37 43 46 48 52 47 48 45 44 44 43 45 47 49 53 53 46 51 46 42 51 63 67 65 60 60 48 46 52 52 51 72 71 72 72 76 74 74 73
44 46 58 56 32 33 43 45 46 44 44 43 42 45 45 41 36 46 49 51 53 49 43 45 44 38 44 54 61 57 61 62 60 57 49 44 50 73 73 73 74 73 75 76 73
44 32 44 48 46 40 38 40 40 47 44 44 42 45 42 38 43 40 44 50 50 49 46 48 42 39 36 44 52 48 55 60 57 47 49 52 56 64 69 71 74 73 76 75 71
42 35 42 31 36 40 41 39 38 37 43 44 40 40 38 32 35 36 42 42 46 48 48 45 34 39 43 47 49 49 48 51 49 52 48 54 57 64 68 70 72 74 74 70 70
35 34 41 37 42 40 38 35 36 38 38 36 36 39 38 33 35 32 37 36 35 42 41 46 34 38 34 41 43 43 48 51 52 53 55 57 58 70 73 75 72 73 73 71 68
46 47 40 35 38 37 37 38 37 40 41 42 40 37 36 39 42 42 42 40 39 35 34 35 34 32 26 38 39 32 42 48 52 57 56 50 60 70 68 70 72 70 72 71 71
MSLP
1022.55 1021.98 1021.41 1020.85 1020.39 1019.84 1019.31 1018.72 1018.16 1017.67 1017.07 1016.53 1015.98 1015.40 1014.78 1014.22 1013.21 1011.25 1010.13 1008.74 1008.49 1008.55 1008.46 1007.67 1006.74 1005.87 1005.40 1004.93 1004.51 1003.86 1003.11 1001.56 1000.06 998.82 998.09 998.32 1000.17 998.98 999.51 1000.81 1002.36 1002.96 1004.96 1007.35 1009.29
1022.68 1022.25 1021.63 1021.09 1020.50 1019.90 1019.36 1018.81 1018.21 1017.47 1016.83 1016.31 1015.83 1015.30 1014.70 1014.15 1012.86 1010.19 1008.23 1008.47 1008.56 1008.58 1008.12 1007.14 1005.92 1005.07 1004.70 1004.10 1003.62 1003.31 1002.57 1001.29 1000.06 998.91 997.98 998.52 999.63 998.26 1000.43 1001.96 1003.94 1005.64 1007.00 1008.63 1009.89
1022.77 1022.19 1021.67 1021.13 1020.53 1019.96 1019.33 1018.74 1018.15 1017.39 1016.68 1016.07 1015.59 1015.02 1014.52 1014.19 1011.70 1007.83 1008.31 1008.27 1008.32 1008.45 1008.27 1007.40 1006.23 1005.24 1004.08 1003.37 1002.93 1002.41 1001.91 1000.99 999.80 999.20 998.61 998.27 998.77 999.84 1000.81 1002.49 1004.05 1006.20 1007.59 1008.90 1009.62
1022.80 1022.21 1021.61 1020.97 1020.33 1019.72 1019.06 1018.36 1017.69 1017.03 1016.40 1015.79 1015.19 1014.70 1014.31 1013.62 1009.90 1007.74 1007.99 1007.89 1008.15 1008.03 1007.77 1006.97 1005.98 1005.21 1004.21 1003.25 1002.45 1001.67 1001.30 1000.67 1000.03 999.72 999.65 999.33 999.49 1000.13 1000.88 1002.17 1003.96 1006.16 1007.59 1008.30 1008.85
1022.89 1022.17 1021.46 1020.77 1020.09 1019.41 1018.72 1018.02 1017.28 1016.61 1016.04 1015.42 1014.92 1014.60 1013.73 1011.49 1008.14 1007.53 1007.72 1007.74 1007.73 1007.47 1006.86 1006.24 1005.48 1004.66 1003.79 1002.99 1002.13 1001.09 1000.76 1000.44 1000.03 1000.04 1000.52 1000.20 1000.62 1001.39 1002.31 1002.79 1004.34 1006.11 1007.37 1007.82 1008.14
1022.80 1022.06 1021.30 1020.51 1019.72 1018.98 1018.26 1017.50 1016.86 1016.16 1015.54 1014.91 1014.51 1014.48 1013.29 1009.77 1006.45 1006.49 1006.85 1006.89 1006.76 1006.23 1005.91 1005.62 1005.00 1004.29 1003.59 1002.77 1001.93 1001.03 1000.45 1000.11 1000.02 1000.32 1000.84 1000.76 1001.24 1002.37 1003.98 1004.44 1005.08 1005.98 1006.81 1007.34 1007.65
1022.66 1021.90 1021.11 1020.23 1019.36 1018.50 1017.67 1016.92 1016.25 1015.60 1014.96 1014.39 1014.07 1013.76 1011.54 1008.13 1006.22 1006.46 1006.53 1006.63 1006.27 1005.85 1005.45 1004.95 1004.75 1004.45 1003.78 1003.34 1002.24 1001.39 1000.73 1000.03 1000.03 1000.52 1000.97 1001.13 1002.07 1003.37 1004.73 1005.45 1005.71 1006.13 1006.69 1007.16 1007.54
1022.66 1021.79 1020.85 1019.85 1018.84 1017.84 1016.90 1016.09 1015.54 1014.89 1014.36 1013.93 1013.98 1013.04 1009.74 1006.59 1006.30 1006.21 1006.21 1006.08 1005.99 1005.85 1005.77 1005.45 1005.26 1005.04 1004.45 1003.75 1002.69 1001.72 1001.13 1000.32 1000.00 1000.53 1000.94 1001.89 1002.01 1003.97 1005.08 1005.97 1006.60 1006.82 1006.84 1007.33 1007.84
1022.64 1021.69 1020.66 1019.51 1018.35 1017.17 1016.19 1015.18 1014.63 1014.06 1013.83 1013.74 1013.56 1011.94 1008.02 1006.72 1006.25 1005.84 1005.87 1005.57 1005.35 1005.57 1005.66 1005.56 1005.57 1005.35 1004.88 1004.14 1003.15 1001.77 1000.65 1000.41 1000.11 1000.19 1000.83 1001.95 1002.08 1002.97 1005.11 1006.07 1006.70 1006.82 1007.28 1007.84 1008.46
1022.60 1021.53 1020.40 1019.13 1017.88 1016.54 1015.49 1014.00 1013.38 1013.76 1013.37 1012.69 1011.79 1010.64 1007.51 1005.70 1005.00 1005.40 1005.30 1005.34 1005.15 1005.08 1005.31 1005.43 1005.41 1004.97 1004.19 1003.51 1001.78 1001.33 1000.99 1000.40 999.55 999.54 999.99 1001.08 1002.13 1003.40 1004.94 1005.74 1006.31 1006.64 1007.36 1008.21 1008.79
1022.54 1021.45 1020.16 1018.90 1017.59 1016.16 1015.28 1012.86 1012.83 1012.99 1011.99 1009.62 1008.74 1007.43 1005.76 1005.46 1005.67 1005.31 1005.07 1005.08 1005.15 1005.03 1004.73 1004.68 1004.66 1003.64 1003.28 1002.80 1002.34 1001.51 1000.64 999.70 999.10 998.87 999.19 999.97 1001.33 1002.57 1004.19 1005.23 1005.60 1006.34 1007.21 1008.02 1008.97
1022.54 1021.36 1020.03 1018.69 1017.50 1016.11 1014.82 1013.67 1014.56 1014.61 1012.02 1009.27 1007.70 1006.81 1005.88 1005.33 1005.41 1004.80 1004.57 1005.00 1004.86 1004.42 1004.26 1004.21 1003.01 1003.26 1002.85 1002.37 1001.84 1001.59 1000.67 999.67 998.88 998.28 998.79 999.93 1000.63 1001.78 1003.17 1003.92 1004.75 1005.50 1006.52 1007.49 1008.63
1022.57 1021.26 1019.96 1018.62 1017.29 1016.04 1014.96 1015.05 1014.72 1014.42 1012.30 1007.52 1006.06 1005.55 1005.23 1005.39 1004.91 1004.63 1004.35 1004.42 1004.12 1004.10 1003.65 1002.92 1002.39 1002.21 1002.25 1002.26 1001.81 1001.10 1000.49 1000.10 999.30 998.62 998.14 999.38 1000.26 1000.75 1002.68 1003.69 1004.35 1005.16 1005.83 1006.92 1008.11
1022.57 1021.30 1019.79 1018.49 1017.48 1015.74 1015.22 1015.43 1015.24 1015.01 1012.15 1006.76 1005.58 1004.85 1005.14 1005.24 1004.55 1003.92 1003.63 1004.05 1003.87 1003.45 1003.12 1002.67 1002.34 1001.92 1001.69 1001.72 1001.91 1001.19 1000.87 1000.40 999.95 999.32 999.94 1000.81 1000.47 1001.11 1002.51 1003.49 1003.50 1004.22 1005.14 1006.44 1007.86
1022.55 1021.41 1020.04 1019.22 1018.02 1016.13 1016.51 1015.96 1015.43 1015.03 1011.00 1006.26 1005.23 1005.19 1004.79 1004.98 1003.72 1002.64 1003.45 1003.34 1003.37 1003.12 1003.25 1002.27 1002.03 1001.82 1001.43 1001.56 1001.97 1001.51 1001.65 1001.25 1000.92 1000.12 1000.18 1000.37 1000.14 1000.04 1001.21 1002.02 1002.67 1003.73 1004.96 1006.17 1007.55
1022.39 1021.28 1020.30 1018.06 1016.96 1017.24 1016.67 1016.11 1015.42 1013.94 1009.38 1005.85 1005.07 1004.88 1004.84 1004.57 1004.13 1003.19 1003.36 1003.56 1003.47 1003.53 1002.88 1002.23 1002.08 1001.48 1001.40 1001.68 1001.63 1001.92 1002.26 1002.21 1001.91 1001.26 999.92 999.82 999.58 999.61 999.25 999.59 1001.52 1003.04 1004.56 1005.78 1007.05
1021.97 1020.97 1020.11 1018.95 1018.01 1017.48 1016.75 1015.51 1014.34 1012.17 1007.89 1006.65 1006.32 1005.79 1005.04 1004.33 1003.48 1003.38 1003.48 1003.67 1003.89 1003.68 1003.08 1002.74 1001.89 1001.52 1001.59 1001.75 1001.98 1002.04 1002.40 1002.44 1002.41 1001.42 1000.08 999.68 998.70 997.61 997.94 998.04 999.56 1001.26 1002.93 1004.76 1006.36
1022.04 1020.29 1019.01 1018.11 1018.33 1017.48 1016.55 1014.91 1013.91 1011.03 1009.77 1009.28 1008.24 1007.57 1006.40 1005.23 1003.92 1003.46 1003.45 1003.59 1003.81 1004.05 1003.39 1002.35 1001.11 1000.95 1001.02 1000.87 1001.55 1001.61 1001.99 1001.95 1001.70 1001.17 1000.47 999.50 997.37 995.96 997.43 997.40 997.98 999.43 1001.49 1003.78 1005.63
1021.84 1018.93 1018.27 1018.36 1018.09 1017.38 1016.33 1014.70 1013.69 1012.96 1012.78 1011.61 1009.63 1007.68 1006.13 1005.16 1004.61 1004.10 1004.01 1004.12 1003.93 1003.96 1004.13 1003.09 1001.38 1000.53 999.79 999.96 1000.73 1000.82 1001.17 1001.09 1001.88 1001.94 1000.77 999.21 997.66 996.70 996.53 996.78 997.23 998.14 999.55 1001.65 1004.12
1021.68 1018.92 1018.32 1018.20 1017.79 1017.20 1015.96 1015.16 1014.26 1014.74 1014.24 1013.31 1011.72 1009.51 1008.18 1006.97 1006.51 1005.64 1005.80 1006.92 1006.90 1006.89 1006.53 1004.76 1003.07 1001.64 1000.40 999.87 999.65 1000.12 1001.13 1001.36 1000.97 1001.04 1000.40 999.09 997.61 996.04 995.64 995.78 996.23 996.42 997.91 1000.36 1002.63
1020.56 1018.51 1018.71 1017.67 1017.15 1016.58 1016.35 1015.83 1015.82 1015.67 1015.45 1014.78 1013.45 1012.57 1011.45 1010.33 1009.61 1008.60 1007.72 1009.38 1009.57 1008.68 1007.74 1006.83 1005.26 1003.68 1002.28 1000.41 1000.28 1000.57 1000.76 1000.97 1001.07 1000.72 1000.09 999.02 997.23 996.63 995.54 995.26 995.08 995.39 996.61 999.21 1001.44
1021.16 1019.54 1019.19 1018.21 1018.06 1018.41 1017.86 1017.55 1017.56 1016.60 1016.24 1015.97 1015.36 1014.82 1013.96 1013.30 1012.09 1011.25 1010.08 1010.71 1011.72 1010.94 1010.25 1009.85 1008.43 1005.96 1003.87 1002.33 1001.41 1000.78 1000.43 1000.55 1000.85 1000.48 999.79 998.55 996.77 996.82 995.73 995.36 995.23 995.06 996.05 998.71 1000.39
1022.41 1020.82 1019.59 1018.77 1019.25 1019.51 1018.83 1018.01 1017.78 1017.75 1017.68 1017.35 1016.85 1016.40 1016.30 1015.60 1014.67 1012.75 1012.11 1012.83 1012.88 1012.96 1013.09 1012.55 1009.92 1007.71 1005.44 1004.30 1002.78 1001.54 1000.94 1000.82 1000.72 1000.39 999.72 998.90 996.98 996.63 995.57 995.42 995.48 995.72 995.52 996.84 999.16
1023.74 1022.35 1021.28 1020.82 1020.76 1020.17 1019.59 1018.76 1018.41 1018.28 1018.57 1018.69 1018.24 1017.66 1017.28 1016.97 1016.52 1014.90 1014.03 1013.66 1014.25 1014.57 1014.68 1013.95 1012.21 1010.66 1008.40 1006.13 1004.67 1003.47 1002.23 1001.45 1000.87 1000.35 999.66 998.43 997.29 996.36 995.58 994.95 995.19 995.58 996.06 996.89 998.97
1025.20 1023.97 1023.02 1022.11 1021.42 1021.08 1020.33 1020.07 1019.25 1019.01 1019.52 1019.36 1018.63 1018.46 1018.49 1018.30 1017.61 1016.80 1016.24 1015.95 1015.46 1015.26 1014.97 1014.54 1013.45 1012.53 1010.68 1009.06 1007.08 1005.47 1004.30 1003.02 1002.05 1000.99 999.49 998.42 996.95 996.04 996.10 995.33 995.05 995.01 995.51 997.99 998.90
1026.12 1025.60 1024.66 1023.51 1022.05 1021.41 1020.86 1020.67 1020.07 1020.11 1020.41 1020.04 1019.78 1019.47 1019.72 1019.41 1018.99 1018.26 1018.24 1018.27 1017.50 1016.68 1016.12 1015.11 1014.18 1013.78 1012.09 1011.20 1009.64 1006.96 1005.37 1003.86 1002.44 1001.42 999.81 998.38 996.88 996.15 995.70 995.36 995.07 995.40 996.43 997.35 998.40
1026.58 1026.04 1025.48 1024.31 1022.77 1021.62 1021.13 1020.69 1020.72 1020.72 1020.50 1020.42 1020.21 1020.13 1019.89 1019.66 1019.57 1019.68 1019.72 1019.49 1018.90 1018.18 1017.51 1017.05 1015.91 1015.19 1013.14 1012.47 1010.53 1008.22 1005.11 1003.90 1002.48 1001.37 1000.32 998.91 997.68 996.66 995.76 995.34 995.05 995.20 995.81 996.96 997.32
Wind_Speed
22 22 23 23 23 23 23 24 23 23 22 22 22 22 22 20 25 16 14 7 1 5 6 12 15 15 15 15 16 18 11 14 20 21 20 14 16 16 19 17 10 3 21 25 19
23 23 23 23 23 23 23 23 24 24 24 22 22 21 21 19 19 16 3 3 1 2 9 13 15 15 14 15 13 14 12 18 22 19 17 18 32 17 15 15 19 23 24 25 21
24 24 24 24 23 24 24 24 24 23 23 23 21 21 19 18 12 3 2 4 1 4 12 15 15 16 17 15 18 17 15 19 19 16 13 5 9 12 17 11 18 20 21 23 22
26 26 26 26 25 25 26 26 25 24 23 23 21 19 16 7 6 6 5 5 1 7 12 16 15 16 17 18 20 21 19 20 20 10 11 9 6 10 14 12 19 20 21 21 21
26 27 27 27 27 27 27 26 25 24 23 22 19 15 10 8 12 11 5 6 6 9 11 14 16 15 19 19 21 23 19 21 19 2 7 16 11 6 12 18 20 22 20 20 18
28 28 28 29 29 29 28 27 25 24 23 21 16 8 7 12 2 4 4 5 11 10 11 13 14 16 18 20 22 22 21 14 17 6 13 16 14 10 5 10 19 20 20 18 17
30 30 31 31 31 30 29 27 25 24 22 17 11 7 10 20 3 8 6 8 11 12 12 11 12 16 12 15 18 19 22 14 20 11 15 8 12 9 13 8 15 17 16 16 16
31 30 30 31 31 31 29 27 24 21 17 11 5 10 9 8 6 9 10 12 10 9 11 12 9 12 15 15 19 19 20 16 16 14 13 12 17 16 17 15 14 13 15 13 13
31 31 31 32 31 29 27 26 23 18 10 5 6 9 9 3 10 11 14 12 12 11 11 10 6 12 14 15 15 17 17 20 23 21 15 16 14 20 20 18 17 16 15 14 14
31 32 33 32 30 29 28 28 12 7 8 10 11 9 8 10 2 3 8 9 12 9 11 11 8 14 14 15 18 20 20 22 21 22 22 22 18 20 21 21 20 17 15 14 15
32 33 34 32 29 29 18 9 3 6 10 10 7 12 4 3 6 9 10 9 13 12 14 15 13 17 18 20 24 22 24 26 22 23 25 22 21 22 21 20 19 18 17 16 14
32 33 33 31 28 27 14 7 10 6 13 19 24 22 20 11 8 11 10 9 13 16 16 15 19 17 18 20 21 24 25 26 24 23 20 21 22 22 22 21 19 18 19 18 17
32 33 34 31 29 14 7 13 11 12 8 11 15 17 16 16 19 18 15 15 14 17 18 19 15 19 16 17 21 22 23 23 26 18 5 17 20 18 21 18 18 18 19 19 19
32 33 32 29 11 10 5 14 12 7 6 7 6 3 6 4 10 20 20 16 16 20 18 18 18 19 17 15 18 21 21 21 23 24 10 19 10 17 18 19 20 19 17 16 17
32 31 30 26 9 8 13 13 11 3 4 5 9 5 3 10 13 11 19 16 19 17 15 17 19 18 19 19 15 19 18 19 23 24 16 20 15 16 27 22 23 19 17 17 18
32 31 25 9 7 14 14 13 5 3 6 5 4 4 9 12 12 8 4 17 12 20 21 20 19 18 16 15 17 16 16 19 20 16 18 21 17 18 18 24 23 20 19 17 17
34 31 23 11 9 15 12 7 4 4 2 3 7 10 11 13 10 12 9 13 13 14 16 20 24 21 17 13 15 15 14 11 12 15 14 22 25 15 23 21 24 26 26 24 20
35 35 11 6 11 12 9 6 2 9 9 17 13 17 16 16 17 15 13 14 18 18 17 16 18 23 20 24 18 19 18 12 15 16 17 23 25 22 19 19 23 25 22 23 20
32 5 3 8 10 8 7 2 3 10 12 15 18 15 14 13 13 13 11 15 15 12 18 17 26 23 18 23 24 22 21 18 18 19 15 16 23 27 20 25 26 24 31 29 25
13 10 6 13 10 7 6 2 4 10 11 10 9 11 12 16 15 6 10 16 15 19 18 9 18 18 25 15 15 19 15 16 13 21 22 21 24 16 20 26 27 23 28 27 26
6 7 9 18 8 5 1 2 5 9 10 8 12 15 14 16 16 17 15 17 17 19 16 13 11 16 21 22 15 14 16 18 17 14 16 19 17 20 18 16 20 22 27 29 28
9 5 10 11 6 4 4 6 5 9 10 6 9 8 10 13 13 15 17 10 14 17 12 13 7 9 21 20 22 21 21 19 14 21 16 15 18 18 16 10 9 15 23 24 27
9 6 8 10 4 4 5 8 2 6 8 7 8 7 10 10 7 11 10 13 17 16 12 12 6 10 18 17 22 23 23 17 18 15 20 18 15 13 25 19 10 11 17 25 28
6 5 4 6 7 8 7 5 6 5 6 9 11 9 7 10 12 11 16 9 15 15 6 9 9 12 14 20 22 18 22 23 20 14 15 16 25 23 21 18 16 8 7 9 26
5 5 6 5 4 8 7 9 8 6 6 10 4 5 11 8 16 12 14 20 22 16 10 6 10 15 20 24 28 25 26 23 22 22 19 19 23 22 21 23 12 9 17 3 23
4 4 8 12 9 10 1 7 7 5 7 10 12 9 10 11 13 17 18 16 11 15 14 14 13 12 22 22 25 29 26 25 23 24 24 25 25 19 17 21 18 5 8 25 28
5 4 4 8 10 9 7 7 8 11 8 6 10 11 14 14 14 14 15 16 20 22 20 20 14 14 22 21 23 18 26 25 25 24 22 20 19 19 20 15 17 9 14 15 26
Wind_Direction
357 352 349 347 345 343 340 335 332 329 327 324 323 321 319 321 313 289 251 280 233 17 324 282 273 251 245 249 256 265 263 262 263 261 264 98 336 83 88 114 96 120 136 132 141
355 351 348 344 342 339 337 334 329 326 323 321 319 317 315 322 303 276 277 114 197 25 276 262 265 246 236 246 235 231 252 247 266 273 276 166 173 117 121 117 96 80 100 129 144
352 349 346 343 340 337 334 330 326 322 318 316 314 314 312 316 285 128 111 81 228 222 259 273 285 284 274 244 246 231 237 261 268 320 342 152 148 135 133 153 132 131 136 144 153
351 347 344 341 338 334 330 327 323 320 315 311 311 312 310 285 301 94 144 97 136 240 242 253 252 255 252 249 243 250 239 249 262 319 329 277 237 148 163 168 134 140 149 154 158
349 346 342 338 335 331 327 323 320 316 311 307 306 309 302 238 256 120 164 175 231 218 237 245 245 244 250 252 253 248 242 247 256 334 301 281 123 105 83 120 131 141 158 162 164
348 345 341 337 333 328 324 320 315 311 306 303 299 300 251 258 285 162 248 247 258 240 249 240 258 253 262 269 257 258 255 245 261 224 262 262 122 126 105 134 142 154 162 167 164
346 343 339 335 330 325 321 316 311 307 301 296 295 232 264 249 271 306 225 254 256 259 272 269 264 260 277 256 272 270 275 247 252 206 238 226 138 178 151 176 153 159 165 168 173
344 341 336 332 327 322 317 311 308 302 293 283 265 246 258 282 277 278 259 255 242 254 259 285 319 290 275 283 282 253 255 253 234 214 212 191 207 180 158 180 179 191 170 156 156
342 338 335 330 325 319 313 307 302 291 264 239 234 225 262 159 234 239 230 236 237 226 242 255 247 262 250 243 252 244 246 226 246 199 198 197 227 177 164 177 186 183 178 167 163
340 337 334 330 325 317 316 295 274 296 225 209 255 277 241 249 167 267 236 242 243 223 231 230 240 240 230 235 228 231 229 244 236 236 199 192 224 154 173 179 191 184 167 174 182
338 337 333 330 325 317 324 311 230 184 232 242 185 251 306 173 301 238 240 219 236 236 230 222 232 234 236 226 250 254 246 241 233 244 193 205 206 167 179 188 190 184 175 182 173
337 336 334 330 324 318 313 38 29 317 295 271 263 263 266 291 267 266 221 212 216 229 227 240 234 244 250 257 247 241 257 257 262 238 191 206 218 173 181 187 197 185 183 179 176
338 336 333 328 322 301 45 19 357 338 266 285 225 242 242 234 250 253 235 219 227 226 239 242 247 237 234 254 259 253 243 247 258 261 228 200 212 192 172 188 202 200 193 184 167
337 336 332 329 295 317 51 354 346 336 272 178 188 227 211 238 264 230 248 212 229 245 235 247 254 257 252 252 246 258 253 261 264 261 196 220 221 188 176 198 203 202 199 187 160
336 336 329 327 303 2 336 331 322 273 312 133 125 84 124 215 341 183 214 225 237 233 236 252 248 251 251 257 254 261 281 279 269 266 250 226 229 217 192 197 204 199 200 190 166
335 333 331 324 281 359 329 311 279 235 249 149 108 196 211 220 247 275 220 235 248 250 261 258 264 262 242 260 256 249 258 263 270 270 255 249 222 234 225 192 190 199 199 200 171
333 328 317 297 338 325 312 277 255 192 198 60 8 331 317 302 250 230 204 217 230 234 246 254 252 248 255 246 264 260 239 243 248 244 249 252 247 221 228 196 187 195 193 194 173
332 315 286 17 332 318 296 246 210 274 359 4 347 318 286 278 261 241 231 241 216 249 275 267 241 232 227 235 235 235 231 227 234 230 241 246 243 243 222 263 204 191 189 183 173
326 300 311 4 333 310 285 257 252 12 3 343 320 269 270 249 258 272 294 250 257 240 243 251 265 281 266 220 218 232 248 246 234 259 263 263 248 245 239 217 254 200 182 181 172
319 286 24 335 334 293 259 274 82 7 343 329 304 318 322 337 335 308 252 37 350 359 348 309 303 277 268 293 225 228 245 247 223 238 249 252 257 260 226 221 226 231 186 171 172
281 300 5 339 305 268 9 306 8 350 346 329 340 315 322 317 322 310 295 52 8 342 328 347 289 277 291 252 257 235 237 249 269 261 232 253 249 257 267 272 228 227 165 170 173
316 351 16 327 42 4 353 3 332 348 359 339 322 345 320 338 312 312 306 49 26 6 3 4 311 284 275 285 278 266 260 245 231 253 259 259 250 269 270 303 359 243 158 171 175
327 318 27 344 48 13 328 303 315 351 350 352 310 355 323 316 307 289 285 44 26 11 19 348 314 294 267 259 268 262 259 256 266 263 241 264 270 238 264 264 294 311 190 175 167
322 330 355 28 356 343 354 333 324 71 312 357 305 301 328 325 305 292 311 335 354 335 2 301 273 277 278 294 306 300 290 265 256 254 261 246 259 261 271 270 257 218 229 165 158
340 316 2 312 336 333 328 316 313 340 13 324 334 309 349 324 321 289 321 327 318 312 309 273 280 297 291 290 293 297 297 295 289 291 263 254 256 251 265 277 290 237 171 217 163
336 331 332 299 312 288 17 281 287 324 333 316 302 329 320 305 297 310 328 322 307 322 311 300 286 285 291 290 291 289 284 279 272 269 269 280 257 268 251 259 272 235 251 194 172
324 313 300 304 298 294 286 296 305 297 304 272 301 291 290 301 326 315 301 290 279 282 280 285 285 282 272 290 288 280 260 266 269 271 280 282 294 263 269 272 278 271 176 262 173